{"data":{"norad_id":68014,"epoch":"2026-05-24T20:17:15.882144Z","epoch_age_seconds":95162,"freshness":"FRESH","line1":"1 68014U 26039AE  26144.84532271  .00010890  00000+0  40458-3 0  9999","line2":"2 68014  43.0024 338.5477 0001488 274.4436  85.6246 15.27587091 13350","mean_motion":15.27587091,"eccentricity":0.0001488,"inclination_deg":43.0024,"raan_deg":338.5477,"arg_perigee_deg":274.4436,"mean_anomaly_deg":85.6246,"bstar":0.00040458,"rev_number":1335,"period_min":94.266311131062,"perigee_km":482.00692178518,"apogee_km":484.04880444845,"semimajor_km":6861.1648631168,"source":"CELESTRAK","updated_at":"2026-05-25T13:38:21.803761Z"}}